Погода в Бобровниково

Россия / Вологодская область     60°49′17″N   46°25′26″E
темп.,
°C
ветер,
м/с
пор.,
м/с
влажн.,
%
обл.,
%
осадки,
мм/ч
давл.,
гПа
погр.,
м
9 мая, вс
вс900:00+8вюв31073100 0.0 1012231
03:00+7юв41277100 0.0 1011298
06:00+9юв51583100 0.0 1009663
09:00+13ююв51273100 0.2 1008951
12:00+12ююв41289100 1.8 10081021
15:00+12ю41287100 2.9 1009945
18:00+12юз2997100 2.4 1009495
21:00+10сз2599100 10.2 1010295
10 мая, пн
пн1000:00+7сз4996100 3.9 1013529
03:00+5ссз4895100 9.6 1017560
06:00+5ссз3892100 1.9 1020764
09:00+6ссз4879100 2.0 1023884
12:00+11с35515 0.0 10251465
15:00+13с34415 0.0 10261852
18:00+12с23505 0.0 1027270
21:00+7ююв116615 0.0 102910
11 мая, вт
вт1100:00+5юз2273100 0.0 103011
03:00+4ююз22788 0.0 103121
06:00+8ююз246664 0.0 1032165
09:00+13юз354772 0.0 1031820
12:00+16юз45425 0.0 10311147
15:00+18юз45445 0.0 10301220
18:00+17юз255720 0.0 1030292
21:00+12ююз2578100 0.0 103074
12 мая, ср
ср1200:00+10ююз258412 0.0 103182
03:00+9юз228858 0.0 103234
06:00+12юз237464 0.0 1032146
09:00+18юз235474 0.0 1031587
12:00+21юз33435 0.0 10311144
15:00+23юз33410 0.0 10301308
18:00+21ююз23542 0.0 1029119
21:00+15ююз22730 0.0 102912
13 мая, чт
чт1300:00+12ююз22770 0.0 102911
03:00+11ююз11774 0.0 102910
06:00+14ю12635 0.0 1029112
09:00+20ю22430 0.0 1028576
12:00+23ююз23330 0.0 10271364
15:00+24ююз233628 0.0 10261965
18:00+22юв225299 0.0 102435
21:00+18ююв2264100 0.0 102424